RSQA2 Weather Reports


Display with metric or nautical units.
time (UTC)temp
F
wind
direction
speed
MPH
gust
MPH
rain 1hr
in
rain 24hr
in
rain mn
in
humidity
%
barometer
mb
20260509005816 48 123 0.0 1.0 0.00 0.01 0.00 59 1000.8
20260509004316 48 123 0.0 3.0 0.00 0.01 0.00 59 1000.9
20260509001322 49 61 0.0 2.0 0.00 0.01 0.00 57 1001.2
20260508235820 48 349 0.0 1.0 0.00 0.01 0.00 58 1001.4
20260508234325 48 350 0.0 3.0 0.00 0.01 0.00 60 1001.6
20260508231311 48 128 0.0 3.0 0.00 0.01 0.00 59 1001.9
20260508225808 50 116 0.0 3.0 0.00 0.01 0.00 58 1002.1
20260508222813 51 202 3.0 6.0 0.00 0.01 0.00 51 1002.3
20260508221318 50 129 0.0 3.0 0.00 0.01 0.00 55 1002.6
20260508215814 49 109 2.0 5.0 0.00 0.01 0.00 56 1002.7
20260508214317 50 74 1.0 3.0 0.00 0.01 0.00 55 1002.8
20260508212817 52 47 1.0 3.0 0.00 0.01 0.00 52 1003.1
20260508211318 52 58 0.0 10.0 0.00 0.01 0.00 55 1003.3
20260508205819 51 137 0.0 5.0 0.00 0.01 0.00 57 1003.6
20260508202809 50 41 0.0 3.0 0.00 0.01 0.00 56 1004.1
20260508201309 49 101 0.0 5.0 0.00 0.01 0.00 57 1004.3
20260508195811 48 355 0.0 5.0 0.00 0.01 0.00 61 1004.4
20260508194311 47 101 0.0 6.0 0.00 0.01 0.00 60 1004.7
20260508192815 46 211 1.0 4.0 0.00 0.01 0.00 62 1004.7
20260508184328 44 203 1.0 2.0 0.00 0.01 0.00 67 1005.6
20260508182812 44 136 2.0 7.0 0.00 0.01 0.00 68 1005.7
20260508181312 44 136 0.0 5.0 0.00 0.01 0.00 71 1005.9
20260508174319 43 296 0.0 3.0 0.00 0.01 0.00 73 1006.1
20260508172821 42 295 0.0 2.0 0.00 0.01 0.00 74 1006.3
20260508164311 40 296 0.0 2.0 0.00 0.01 0.00 80 1006.7
20260508162811 39 295 0.0 3.0 0.00 0.01 0.00 84 1007.0
20260508161316 38 296 0.0 2.0 0.00 0.01 0.00 88 1007.2
20260508154320 35 296 0.0 1.0 0.00 0.01 0.00 89 1007.7
20260508152818 35 296 0.0 0.0 0.00 0.01 0.00 89 1007.9
20260508151323 35 295 0.0 0.0 0.00 0.01 0.00 89 1008.1
20260508145819 34 76 0.0 0.0 0.00 0.01 0.00 89 1008.1
20260508144324 33 77 0.0 0.0 0.00 0.01 0.00 89 1008.1
20260508142824 32 77 0.0 0.0 0.00 0.01 0.00 89 1008.3
20260508141323 32 77 0.0 0.0 0.00 0.01 0.00 89 1008.4
20260508132815 32 77 0.0 0.0 0.00 0.01 0.00 88 1008.8
20260508131315 33 76 0.0 0.0 0.00 0.01 0.00 88 1008.9
20260508125816 32 76 0.0 0.0 0.00 0.01 0.00 88 1009.0
20260508124317 32 77 0.0 0.0 0.00 0.01 0.00 88 1009.3
20260508115811 33 77 0.0 0.0 0.00 0.01 0.00 87 1009.7
20260508114313 33 77 0.0 0.0 0.00 0.01 0.00 87 1009.8
20260508111320 34 77 0.0 0.0 0.00 0.01 0.00 87 1010.1
20260508104326 35 77 0.0 0.0 0.00 0.01 0.00 86 1010.3
20260508102825 36 76 0.0 0.0 0.00 0.01 0.00 86 1010.4
20260508101328 36 77 0.0 2.0 0.00 0.01 0.00 88 1010.4
20260508094315 34 77 0.0 2.0 0.00 0.01 0.00 88 1010.9
20260508091322 33 77 0.0 0.0 0.00 0.01 0.00 88 1011.3
20260508085819 33 77 0.0 0.0 0.00 0.01 0.00 86 1011.3
20260508084323 33 76 0.0 0.0 0.00 0.01 0.00 87 1011.2
20260508082823 33 77 0.0 0.0 0.00 0.01 0.00 86 1011.2
20260508081323 34 77 0.0 0.0 0.00 0.01 0.00 86 1011.3
20260508072817 36 77 0.0 0.0 0.00 0.01 0.01 85 1011.4
20260508071318 36 77 0.0 0.0 0.00 0.01 0.01 84 1011.4
20260508065819 37 76 0.0 0.0 0.00 0.01 0.01 84 1011.6
20260508064319 37 77 0.0 0.0 0.00 0.01 0.01 84 1011.6
20260508061328 38 77 0.0 0.0 0.00 0.01 0.01 84 1011.7
20260508055810 39 360 0.0 0.0 0.00 0.01 0.01 83 1011.6
20260508054310 40 360 0.0 0.0 0.00 0.01 0.01 83 1011.6
20260508051316 41 5 0.0 0.0 0.00 0.01 0.01 81 1011.7
20260508045817 41 5 0.0 1.0 0.00 0.01 0.01 80 1011.9
20260508042820 42 5 1.0 2.0 0.01 0.01 0.01 83 1012.0
20260508041325 40 303 0.0 3.0 0.01 0.01 0.01 85 1012.3
20260508035823 39 53 1.0 2.0 0.01 0.01 0.01 84 1012.5
20260508034307 39 53 1.0 4.0 0.01 0.01 0.01 83 1012.7
20260508032806 40 131 3.0 7.0 0.00 0.00 0.00 82 1013.4
20260508031312 40 248 0.0 0.0 0.00 0.00 0.00 81 1013.0
20260508025809 40 248 0.0 0.0 0.00 0.00 0.00 80 1012.9
20260508024313 40 248 1.0 7.0 0.00 0.00 0.00 78 1012.9
20260508022812 42 244 4.0 14.0 0.00 0.00 0.00 68 1012.9
20260508021317 47 264 6.0 10.0 0.00 0.00 0.00 51 1012.5
20260508015814 49 186 0.0 6.0 0.00 0.00 0.00 44 1012.0
20260508012822 52 217 0.0 7.0 0.00 0.00 0.00 42 1012.0